Location: Newark
(21.1200°N, 73.4000°E)
Time: 14:37:03
(UTC+00:00)

Vanguard 1 Rocket - Pass Details

Date: 26 January 2020
Orbit: 650 x 4226 km, 34.3° (Epoch: 28 February)

Event Time Altitude Azimuth Distance (km) Brightness Sun altitude
Rises 13:54:20 0° 281° (W) 7,868 13.4 -14.6°
Reaches altitude 10° 14:01:17 10° 269° (W) 7,185 13.2 -16.2°
Maximum altitude 14:19:10 24° 225° (SW) 6,197 12.2 -20.2°
Drops below altitude 10° 14:36:07 10° 178° (S) 6,619 11.9 -24.1°
Sets 14:42:25 0° 165° (SSE) 7,133 11.9 -25.5°
